Location: Tamazert
(32.6352°N, 5.2072°W)
Time: 02:44:02
(UTC+00:00)

ISS - Visible Passes

Search period start: 19 August 2022 00:00
Search period end: 29 August 2022 00:00
Orbit: 412 x 420 km, 51.6° (Epoch: 18 August)

Date Brightness Start Highest point End Pass type
(mag) Time Alt. Az. Time Alt. Az. Time Alt. Az.
20 Aug -2.0 05:02:09 10° S 05:05:04 28° SE 05:07:59 10° ENE visible
21 Aug -1.2 04:14:59 11° SSE 04:16:37 15° SE 04:18:34 10° E visible
22 Aug -3.8 05:01:42 14° SW 05:04:26 75° NW 05:07:47 10° NE visible
23 Aug -3.3 04:15:23 46° SSE 04:15:51 51° SE 04:19:07 10° NE visible
24 Aug -1.0 03:28:59 17° E 03:28:59 17° E 03:30:09 10° ENE visible
24 Aug -2.2 05:01:53 14° W 05:03:59 24° NW 05:06:46 10° NNE visible
25 Aug -3.1 04:15:24 41° NNW 04:15:24 41° NNW 04:18:28 10° NNE visible
26 Aug -1.0 03:28:50 19° NE 03:28:50 19° NE 03:29:57 10° NE visible
26 Aug -1.2 05:03:02 10° NW 05:03:45 10° NNW 05:04:28 10° NNW visible
27 Aug -1.5 04:15:05 16° NNW 04:15:05 16° NNW 04:17:03 10° N visible
28 Aug -0.7 03:28:23 13° NNE 03:28:23 13° NNE 03:28:55 10° NNE visible
